CZ-6A DEB, 54638

Orbit data source: Space-Track

CZ-6A DEB, 54638 is space debris in SSO originally from a launch on Fri, 11 Nov 2022 UTC launched from the Taiyaun Space Center, China (TSC). Debris objects in space refer to the collection of defunct objects orbiting the Earth. Examples of debris include non-operational satellites, rocket bodies, and fragments generated from explosions, collisions, or faulty payload assembly.

Loading next visibility...
Identifier
54638, 2022-151PQ
Orbit
SSO
Country
Flag of CNCN / PRC
Related business
Manufacturer
SAST
Mission
Spacecraft
Bus & Motor
Unknown
Mass
Unknown
Launch date (UTC)
2022-11-11 (4 years ago)
Launch vehicle
Unknown
Launch site
Taiyaun Space Center, China (TSC)
Object type
Payload
Rocket body
Debris
Shape & HBR
Unknown shape, 0.1 m
Radar Cross Section
Medium (>0.1 m² and <1 m²)

Expand to show TLE details & history
Last TLE update: 16 hours ago

TLE from 16 hours ago
0 CZ-6A DEB
1 54638U 22151PQ  26219.75004523  .00012199  00000-0  12644-2 0  9994
2 54638  98.6298 304.2815 0054294  79.9142 280.8192 14.89075517198318
Epoch: 2026-08-07T18:00Z
TLE epoch observation values (Epoch: 2026-08-07T18:00:03.907Z)
Latitude
-0.00006°
Longitude
77.99396°
Altitude
596.919 km
Speed
7.565 km/s
True Right ascension
20h 17m 07s
True Declination
0° 00' 00"
Sunlit
Object was in full shadow at epoch
Visualization orbit readout
Latitude
Unknown
Longitude
Unknown
Altitude
Unknown
Speed
Unknown
Apparent Right ascension
Unknown
Apparent Declination
Unknown
Sunlit
N/A
Visualization observer readout
Local Sidereal Time
23:40:50
Azimuth
Unknown
Elevation
Unknown
Doppler factor
Unknown
Orbital elements
Apogee altitude
635.761 km
Perigee altitude
560.01 km
Semi-major axis
6,976.023 km
Eccentricity
0.00543
Inclination
98.6298°
RAAN
304.2815°
Arg. of periapsis
79.9142°
True anomaly
280.20733°
Mean anomaly
280.8192°
Eccentric anomaly
280.51334°
Mean motion
3.72504 °/min
Orbital period
96.64 mins
BSTAR
0.0012644
Loading maneuver chart data...
Computing Atmospheric mass density...
Loading historical data...
Loading historical data...
Loading historical data...
Loading historical data...
Loading historical data...
Loading historical data...
Loading historical data...

Documentation

Showing up to 5 results
|